Tracking 31027 objects as of 19-Jul-2025
HD Live streaming from Space Station
objects crossing your sky now

STARLINK-32595

Track STARLINK-32595 now!
10-day predictions
STARLINK-32595 is classified as:


NORAD ID: 62037
Int'l Code: 2024-216F
Perigee: 489.7 km
Apogee: 490.7 km
Inclination: 43.0 °
Period: 94.3 minutes
Semi major axis: 6861 km
RCS: Unknown
Launch date: November 21, 2024
Source: United States (US)
Launch site: AIR FORCE EASTERN TEST RANGE (AFETR)
Your satellite tracking list
CZ-4C DEB
Track 1 satellite(s)




NASA's NSSDC Master Catalog

Two Line Element Set (TLE):
1 62037U 24216F   25199.54844098  .00012902  00000-0  47749-3 0  9999
2 62037  42.9932 145.8212 0000751  31.2279 328.8617 15.27583198 37991
Source of the keplerian elements: AFSPC